User: anonymous   Login
Location: Los Gatos B&B
(42.6926°N, 77.0646°W)
Time: 04:59:32
(UTC-04:00)
Language:

Cosmos 2263 Rocket - Orbit

View from above orbital plane
View from above orbital plane
View from above satellite
View from above satellite

Ground track
Ground track

The orbit data is extracted from the following two-line orbital elements,

1 22803U 93059B   14304.05511459 -.00000248  00000-0 -10012-3 0  4104
2 22803 070.9889 112.5381 0015866 041.1037 319.1278 14.16682936 92290
Epoch (UTC): 31 October 2014 01:19:21
Eccentricity: 0.0015866
inclination: 70.9889°
perigee height: 825 km
apogee height: 848 km
right ascension of ascending node: 112.5381°
argument of perigee: 41.1037°
revolutions per day: 14.16682936
mean anomaly at epoch: 319.1278°
orbit number at epoch: 9229

The dashed part of the orbit path shows where the satellite is in the earth's shadow,  

DLR